Location: Aschenhütte
(48.7768°N, 8.4563°E)
Time: 21:00:04
(UTC+00:00)

Daily predictions for brighter satellites

Satellite Brightness Start Highest point End
(mag) Time Altitude Azimuth Time Altitude Azimuth Time Altitude Azimuth
CZ-4C R/B 3.0 15:53:16 10° NW 15:59:55 63° NE 16:08:18 10° SE
CBERS-1 4.0 15:59:35 10° SSE 16:04:38 65° ENE 16:09:42 10° N
SMAP 3.5 16:01:49 10° SE 16:06:07 38° ENE 16:10:26 10° N
Cosmos 2297 Rocket 2.2 16:03:42 10° NNW 16:09:23 75° ENE 16:15:03 10° SSE
Landsat 7 4.4 16:06:47 10° SE 16:10:58 34° ENE 16:15:09 10° N
Cosmos 1626 Rocket 3.5 16:09:53 10° N 16:14:14 87° ENE 16:18:32 10° S
Meteor 1-28 Rocket 3.1 16:11:54 10° NNE 16:15:10 50° E 16:18:25 10° S
NOSS 2-2 (C) 4.0 16:13:36 10° WSW 16:16:30 33° NW 16:19:16 10° NNE
Cosmos 1315 Rocket 4.1 16:18:28 10° SW 16:22:05 40° WNW 16:25:44 10° N
BlueWalker 3 4.2 16:20:15 10° W 16:23:19 26° SW 16:26:21 10° SSE
Cosmos 1606 Rocket 4.5 16:19:43 10° SSE 16:23:28 28° E 16:27:17 10° NNE
ATLAS CENTAUR R/B 2.5 16:22:42 10° NW 16:25:42 35° WSW 16:28:35 10° S
Thor Agena Rocket 3.5 16:21:52 10° SSE 16:27:03 74° ENE 16:32:12 10° NNW
Cosmos 1503 Rocket 4.2 16:22:43 10° S 16:27:48 53° ESE 16:32:51 10° NNE
Cosmos 2219 4.2 16:24:13 10° NNW 16:28:58 26° NE 16:33:43 10° E
CENTAUR R/B 3.5 16:23:48 10° W 16:29:28 42° NNW 16:36:33 10° NE
Cosmos 1484 Rocket 3.2 16:28:17 10° S 16:31:44 59° WSW 16:35:13 10° NNW
Cosmos 1544 Rocket 3.7 16:28:11 10° SSW 16:32:35 82° W 16:37:03 10° N
USA 290 2.7 16:29:58 10° NNW 16:33:12 66° WSW 16:36:26 10° SSE
SL-16 R/B 2.6 16:27:21 10° NNE 16:33:38 85° WNW 16:39:49 10° SSW
GEOS 3 Rocket 3.9 16:28:52 10° NE 16:34:11 58° SE 16:39:29 10° SSW
Cosmos 1980 Rocket 3.5 16:30:40 10° SSE 16:34:49 21° E 16:37:57 14° ENE
Lacrosse 5 rocket 2.4 16:31:49 10° WNW 16:35:04 27° NNW 16:37:41 13° NE
Cosmos 1844 Rocket 4.4 16:32:52 10° N 16:35:39 14° NNE 16:37:20 12° NE
Cosmos 1354 Rocket 4.4 16:32:27 10° S 16:37:27 46° ESE 16:42:26 10° NNE
Meteor 1-25 Rocket 4.3 16:33:28 10° N 16:39:14 61° ENE 16:44:56 10° SSE
Meteor 1-5 Rocket 4.5 16:34:14 10° N 16:39:16 40° ENE 16:44:24 10° SE
Lacrosse 4 Rocket 3.6 16:37:05 10° W 16:39:45 17° NW 16:42:24 10° N
BREEZE M DEB (TANK) 2.8 16:37:45 10° SW 16:40:08 31° SSE 16:41:17 18° ESE
CORIOLIS 4.1 16:35:57 10° SSE 16:41:16 84° ENE 16:46:39 10° NNW
Cosmos 1777 Rocket 4.0 16:38:43 10° SSW 16:43:58 83° ESE 16:49:14 10° NNE
IRIDIUM 104 4.3 16:38:47 10° N 16:44:01 75° E 16:49:14 10° S
Cosmos 2263 Rocket 2.6 16:38:54 10° NNW 16:44:15 41° NE 16:49:36 10° ESE
Cosmos 1726 Rocket 4.2 16:43:04 10° SSE 16:47:20 37° E 16:51:34 10° NNE
CZ-2D R/B 2.7 16:44:55 10° SSE 16:47:59 56° ENE 16:51:05 10° N
USA 238 DEB 4.3 16:44:39 10° S 16:49:54 31° ESE 16:53:47 17° ENE
USA 238 4.3 16:44:47 10° S 16:50:01 31° ESE 16:53:52 17° ENE
Okean 1-7 Rocket 3.4 16:46:52 10° N 16:51:17 78° E 16:55:38 10° SSE
IRIDIUM 114 4.3 16:47:55 10° N 16:53:10 88° E 16:58:24 10° S
Cosmos 1602 Rocket 3.9 16:48:49 10° NNW 16:53:12 70° W 16:57:29 10° S
ERS-1 4.4 16:48:36 10° SSE 16:53:34 66° ENE 16:58:29 10° N
Cosmos 1461 2.7 16:51:46 10° SW 16:55:39 80° NW 16:58:30 18° NE
Cosmos 1933 3.1 16:53:36 10° S 16:57:24 66° E 17:01:12 10° NNE
USA 215 3.8 16:53:50 17° ENE 16:58:33 44° N 17:04:41 10° WNW
IRS-1C 4.1 16:53:56 10° SSE 16:59:16 87° ENE 17:04:38 10° NNW
YAOGAN 1 3.3 16:56:26 10° SE 17:00:06 29° ENE 17:03:47 10° N
Cosmos-2242 4.1 16:56:54 10° SE 17:00:10 22° E 17:00:13 22° E
Cosmos 2227 Rocket 2.1 16:55:08 10° NNW 17:00:50 82° ENE 17:06:29 10° SSE
SKYMED 2 4.3 16:58:49 19° NE 17:01:06 31° E 17:04:59 10° SSE
BREEZE-M DEB (TANK) 4.2 16:58:03 10° SSW 17:01:11 18° SSE 17:02:21 15° SE
NOSS 2-3 (E) 3.7 16:58:44 10° SSW 17:02:11 40° SE 17:03:39 27° ENE
IRIDIUM 103 4.5 16:57:05 10° N 17:02:20 78° W 17:07:32 10° S
NOSS 2-3 (D) 3.8 16:59:25 10° SSW 17:02:52 38° ESE 17:04:13 27° ENE
Cosmos 1743 4.2 17:00:42 10° NNW 17:03:39 33° W 17:06:34 10° SSW
SJ-12 3.6 17:00:20 10° SSE 17:04:06 89° ENE 17:07:55 10° NNW
NOSS 7 (H) 4.5 17:01:28 10° NW 17:04:23 64° SW 17:07:34 10° SSE
Cosmos 2369 Rocket 4.5 17:02:23 10° NW 17:04:49 13° NNW 17:07:15 10° N
Cosmos 2151 3.9 17:03:13 10° NNW 17:07:15 50° W 17:11:17 10° S
Cosmos 1655 Rocket 3.9 17:07:00 10° N 17:13:16 69° E 17:19:26 10° SSE
Meteor 2-10 4.3 17:09:11 10° N 17:14:23 49° ENE 17:19:45 10° SSE
Cosmos 1697 Rocket 2.6 17:09:07 10° SSW 17:14:44 85° ESE 17:19:15 16° NNE
Cosmos 990 Rocket 3.9 17:09:56 10° SSW 17:15:02 79° ESE 17:19:09 16° NNE
CZ-4 R/B 4.3 17:11:41 10° SSE 17:15:32 59° ENE 17:19:27 10° N
Cosmos 1867 4.2 17:10:22 10° NW 17:15:44 60° WSW 17:21:04 10° SSE
MOS 1 Rocket 3.5 17:11:55 10° SSE 17:16:51 87° WSW 17:22:06 10° NNW
Cosmos 1953 Rocket 3.5 17:12:37 10° N 17:17:03 63° ENE 17:21:28 10° SSE
Aureole 1 Rocket 3.8 17:13:16 10° S 17:17:26 40° E 17:19:37 27° NE
SAR-Lupe-4 4.2 17:14:03 10° S 17:17:33 57° WSW 17:21:04 10° NNW
ARIANE 5 R/B 3.2 17:19:18 10° S 17:24:16 58° WSW 17:29:21 10° NNW
Cosmos 1825 Rocket 4.0 17:22:04 10° NNW 17:26:22 63° W 17:30:37 10° S
SOZ 4.4 17:27:50 10° WSW 17:29:40 47° SW 17:29:40 47° SW
COSMOS 2455 4.3 17:26:57 10° SSE 17:29:38 18° ESE 17:29:38 18° ESE
NOAA 6 4.2 17:26:55 10° SE 17:31:45 45° ENE 17:36:35 10° N
Cosmos 1680 Rocket 4.3 17:27:45 10° N 17:31:46 30° NE 17:31:46 30° NE
USA 81 3.9 17:28:52 10° N 17:34:09 68° E 17:39:23 10° SSE
CZ-2D R/B 3.3 17:31:21 10° SSE 17:35:32 74° ENE 17:39:41 10° N
Radarsat Rocket 4.5 17:29:07 10° SSE 17:37:09 69° ENE 17:44:18 10° NNW
IRAS Rocket 4.1 17:32:42 10° SSE 17:38:05 61° ENE 17:43:29 10° N
Gbstr 26 Del rocket 2.5 17:35:12 10° WSW 17:39:12 84° SSE 17:39:37 69° E
Meteor 2-2 Rocket 4.3 17:33:52 10° S 17:39:18 52° E 17:41:51 30° NE
NOSS 3-2 (C) 3.7 17:34:37 10° WSW 17:39:42 53° NW 17:43:16 24° NNE
SPOT 1/Viking Rocket 3.6 17:36:02 10° SSE 17:41:14 83° WSW 17:46:29 10° NNW
PSLV R/B 3.2 17:43:07 64° E 17:43:12 64° ENE 17:47:14 10° N
Cosmos 1076 Rocket 3.9 17:40:10 10° NNW 17:44:26 63° W 17:48:42 10° S
SL-19 R/B 4.1 17:41:29 10° SSE 17:46:51 73° ENE 17:52:33 10° NNW
Cosmos 2082 3.6 17:42:25 10° NNW 17:48:08 64° ENE 17:50:41 33° SE
CZ-4C R/B 4.2 17:41:35 10° NW 17:48:20 44° WSW 17:56:27 10° S
COSMO-SKYMED 1 2.5 17:49:12 57° SE 17:49:12 57° SE 17:52:49 10° S
Cosmos 2058 Rocket 2.9 17:45:17 10° S 17:49:44 76° E 17:50:44 53° NNE
Cosmos 1538 Rocket 4.4 17:55:08 10° NNW 18:00:22 63° WSW 18:05:36 10° S
Meteor 2-11 Rocket 4.4 17:54:25 10° N 18:00:33 61° ENE 18:06:37 10° SSE
Nadezhda 2 Rocket 4.3 17:56:07 10° N 18:02:17 80° E 18:08:23 10° SSE
Meteor 1-26 Rocket 3.9 17:58:14 10° S 18:03:39 82° E 18:05:35 41° NNE
Cosmos 1553 Rocket 3.8 18:04:49 10° S 18:10:57 79° E 18:14:52 25° NNE
Resurs 1-3 4.1 18:07:54 10° S 18:12:08 58° W 18:16:24 10° NNW
Lacrosse 5 rocket 3.3 18:09:54 10° NW 18:11:16 17° NNW 18:11:16 17° NNW
Cosmos 2219 3.4 18:07:56 10° NNW 18:13:41 73° WSW 18:17:57 18° SSE
Cosmos 1980 Rocket 2.3 18:12:35 10° SW 18:18:13 70° WNW 18:19:44 48° N
Cosmos 1844 Rocket 3.7 18:15:32 10° NNW 18:18:59 34° N 18:18:59 34° N
CENTAUR R/B 4.2 18:16:27 10° WNW 18:22:08 27° N 18:24:02 24° NNE
Cosmos 1745 Rocket 4.4 18:20:30 10° N 18:24:48 45° NNE 18:24:48 45° NNE
Cosmos 2263 Rocket 3.5 18:22:54 10° NW 18:28:10 39° WSW 18:33:23 10° S
Cosmos 1898 Rocket 3.6 18:25:08 10° SSW 18:30:11 70° WNW 18:30:11 70° WNW
Cosmos 2369 3.7 18:25:25 10° SSW 18:30:42 77° SSW 18:30:42 77° SSW
YAOGAN 1 4.2 18:32:03 10° SSW 18:35:52 32° W 18:39:44 10° NNW
Cosmos-2242 4.3 18:33:00 10° SW 18:36:35 38° W 18:36:35 38° W
USA 238 DEB 3.7 18:34:11 10° SW 18:40:18 65° NW 18:41:13 58° N
USA 238 3.7 18:34:15 10° SW 18:40:25 66° NW 18:41:20 59° N
USA 215 3.4 18:41:10 56° NNE 18:41:10 56° NNE 18:47:21 10° NW
Cosmos 1937 Rocket 4.4 18:43:54 10° SSW 18:47:30 43° SW 18:47:30 43° SW
COSMOS 2455 4.4 19:10:13 10° SW 19:12:49 27° SW 19:12:49 27° SW
